sat.trackr.live / text

‹ back to catalog

STARLINK-3088

NORAD 49163 · 2021-082AK

PAYLOAD ACTIVE UNKNOWN

§ Identity

Operator
Country
US
Launch date
2021-09-14
Launch site
AFWTR
Launch vehicle
Mass (kg)
RCS (m²)

Purposes: comms

External: N2YO · Heavens-Above · Gunter

§ Orbital elements

Epoch: 2026-05-25T03:05:20.537088Z

Period
96.16 min
Inclination
70.0001°
Eccentricity
0.0003091
Mean motion
14.97532957 rev/d
Perigee alt
572.4 km
Apogee alt
576.7 km
Semi-major
6,952.7 km
B*
1.1752e-4
RAAN
82.7568°
Arg perigee
270.7886°
Mean anomaly
89.2919°
Rev number
25,905

§ Raw data

STARLINK-30881 49163U 21082AK  26145.12870992  .00001282  00000+0  11752-3 0  99932 49163  70.0001  82.7568 0003091 270.7886  89.2919 14.97532957259051

JSON: /api/v1/satellites/49163 · /tle

For live sub-satellite position, see the globe view (requires WebGL).

§ Visibility from observer

Set your observer location to see the next 7 days of passes ≥ 10°. The values pass through the URL so the page stays shareable.

No JS? Fill the form by hand. The geolocation button needs JavaScript.